Location: Voorhees State Park
(40.6817°N, 74.8983°W)
Time: 12:41:51
(UTC-05:00)

Daily predictions for brighter satellites

Satellite Brightness Start Highest point End
(mag) Time Altitude Azimuth Time Altitude Azimuth Time Altitude Azimuth
Cosmos 2181 Rocket 4.1 16:55:31 10° S 17:01:43 60° E 17:08:02 10° NNE
Meteor 1-5 Rocket 4.4 16:56:42 10° N 17:01:54 47° ENE 17:07:14 10° SSE
IDEFIX/ARIANE 42P 2.8 16:57:33 10° SE 17:02:29 45° ENE 17:07:25 10° N
Cosmos 1378 Rocket 3.5 16:58:44 10° S 17:03:02 89° ESE 17:07:22 10° N
USA 234 3.6 16:59:40 10° NE 17:06:10 68° NW 17:12:38 10° WSW
Cosmos 372 Rocket 4.0 17:03:16 10° S 17:08:29 72° ESE 17:13:44 10° NNE
Abrixas 4.4 17:07:53 10° NW 17:10:06 19° N 17:12:19 10° NE
Cosmos 1484 Rocket 4.1 17:09:13 10° ESE 17:11:52 19° ENE 17:14:31 10° NNE
NOSS 3-1 (A) 4.5 17:05:56 10° NW 17:13:35 72° WSW 17:21:54 10° SSE
Cosmos 2082 Rocket 3.9 17:11:38 10° NNE 17:13:42 12° NE 17:15:47 10° ENE
OTV 4 1.8 17:11:19 10° WSW 17:14:08 36° S 17:16:56 10° ESE
Cosmos 1455 Rocket 4.0 17:11:25 10° NNE 17:15:12 27° ENE 17:18:58 10° SE
Cosmos 1295 Rocket 4.4 17:13:30 10° N 17:19:39 74° E 17:25:42 10° SSE
Cosmos 1833 Rocket 4.4 17:18:05 10° NNE 17:19:49 11° NE 17:21:00 11° ENE
Cosmos 1125 Rocket 4.2 17:17:08 10° SSW 17:22:20 58° WNW 17:27:37 10° NNE
Cosmos 2341 Rocket 4.2 17:17:29 10° N 17:23:42 79° W 17:29:55 10° S
Thor Agena Rocket 3.5 17:19:54 10° NNE 17:25:07 79° ESE 17:30:22 10° S
ATLAS 2AS CENTAUR R/B 3.2 17:17:49 10° NNW 17:25:45 53° NE 17:33:10 10° SE
Okean 1 4.1 17:31:55 10° SSE 17:35:28 30° E 17:38:44 12° NNE
Cosmos 1536 3.9 17:32:04 10° NNW 17:36:00 49° W 17:39:55 10° SSW
Cosmos 1500 4.4 17:33:38 10° NNE 17:36:37 21° ENE 17:39:35 10° SE
Meteor 1-18 Rocket 4.4 17:32:59 10° S 17:38:25 53° E 17:43:58 10° NNE
Cosmos 2263 Rocket 4.3 17:34:58 10° WSW 17:39:18 22° NW 17:43:40 10° N
Cosmos 2251 Rocket 3.6 17:34:16 10° N 17:39:31 53° ENE 17:44:42 10° SE
ISS -2.8 17:44:06 10° WSW 17:47:20 54° NNW 17:49:07 23° NE
MSX 3.8 17:46:43 10° SSE 17:52:29 87° ENE 17:58:16 10° NNW
SL-27 R/B 2.5 17:51:41 10° NNW 17:55:22 87° WSW 17:58:59 10° SSE
Nadezhda 3 Rocket 4.4 17:50:24 10° SSE 17:56:03 39° E 18:01:47 10° NNE
Cosmos 1812 2.6 17:52:27 10° S 17:56:18 79° E 18:00:10 10° N
Cosmos 1346 Rocket 3.4 17:53:00 10° SSE 17:56:30 32° E 17:57:08 30° ENE
Cosmos 864 Rocket 4.4 17:53:57 10° N 18:00:15 83° E 18:06:34 10° S
CZ-4 R/B 3.5 17:56:45 10° SSW 18:00:29 31° W 18:04:13 10° NNW
COSMO-SKYMED 1 2.5 17:57:36 10° NNE 18:01:57 69° ESE 18:06:16 10° S
Tiangong 1 3.3 18:01:08 10° S 18:02:26 13° SSE 18:02:26 13° SSE
Cosmos 1544 Rocket 4.0 17:58:57 10° NNW 18:03:23 67° W 18:07:48 10° S
Cosmos 1844 Rocket 3.3 17:59:41 10° SW 18:05:10 57° WNW 18:10:44 10° NNE
GEOS 3 Rocket 3.5 18:00:53 10° SE 18:05:57 70° NE 18:11:04 10° NNW
CZ-2C R/B 3.8 18:02:29 10° SSW 18:07:07 42° W 18:11:56 10° NNW
Cosmos 1238 Rocket 3.2 18:08:33 10° SSW 18:11:25 44° W 18:13:47 14° N
Meteor 1-12 Rocket 4.3 18:06:37 10° N 18:12:25 88° W 18:18:18 10° S
Cosmos 1844 4.0 18:09:53 10° SW 18:15:24 63° WNW 18:20:25 13° NNE
Cosmos 2297 4.2 18:11:23 10° S 18:16:32 38° ESE 18:17:28 35° E
CZ-3A R/B 4.3 18:11:25 10° W 18:17:06 50° N 18:35:18 19° ENE
Cosmos 1975 2.7 18:13:09 10° N 18:17:15 88° E 18:21:17 10° S
BREEZE-M DEB (TANK) 3.8 18:17:26 10° WNW 18:18:35 17° NNW 18:18:35 17° NNW
Cosmos 1536 Rocket 4.0 18:18:07 10° SSW 18:22:32 65° W 18:27:00 10° N
Meteor 1-19 Rocket 4.4 18:22:38 10° SSE 18:28:10 50° E 18:29:45 39° NE
Cosmos 2278 Rocket 2.3 18:27:28 10° SSW 18:33:06 75° WNW 18:36:35 24° NNE
Meteor 2-21 Rocket 4.3 18:30:45 10° N 18:36:58 77° E 18:43:07 10° SSE
Meteor 2-16 Rocket 4.3 18:36:38 10° N 18:42:42 70° E 18:48:45 10° SSE
Meteor 1-13 Rocket 4.1 18:37:18 10° S 18:42:56 82° E 18:46:05 28° NNE
Timation 1 Rocket 4.4 18:40:32 10° S 18:46:14 55° ESE 18:46:14 55° ESE
Okean 1-7 Rocket 3.7 18:42:53 10° S 18:46:43 63° S 18:46:43 63° S
OTV 4 3.4 18:48:25 10° WSW 18:49:39 14° SW 18:49:39 14° SW
Cosmos 921 Rocket 4.4 18:46:31 10° S 18:48:30 27° S 18:48:30 27° S
CZ-3B DEB 3.2 18:46:37 10° WSW 18:51:03 51° NNW 18:55:17 30° NE
Cosmos 1535 Rocket 4.3 18:48:01 10° N 18:54:21 75° E 19:00:35 10° SSE
Timation 2 Rocket 4.0 18:50:21 10° NNW 18:57:12 78° ENE 18:59:44 42° SE
Cosmos 2082 Rocket 2.4 18:53:13 10° NNW 18:57:45 55° N 18:57:45 55° N
NOSS 3-4 (A) 4.5 18:54:43 10° NNW 18:59:50 36° NNE 18:59:50 36° NNE
NOSS 3-4 (C) 4.5 18:54:49 10° NNW 18:59:55 36° NNE 18:59:55 36° NNE
Cosmos 1833 Rocket 3.5 18:59:15 10° NNW 19:02:46 38° N 19:02:46 38° N
BREEZE-M DEB (TANK) 4.5 19:01:37 10° NW 19:05:28 26° NNW 19:05:28 26° NNW
SL-8 R/B 4.4 19:05:15 10° WSW 19:09:02 50° WNW 19:09:02 50° WNW
Cosmos 2239 Rocket 4.5 19:06:20 10° N 19:12:34 78° W 19:18:42 10° S
ATLAS 2AS CENTAUR R/B 4.2 19:09:21 10° NW 19:16:31 38° WSW 19:23:15 10° S
Cosmos 1821 Rocket 4.1 19:14:51 10° NNW 19:20:55 70° W 19:26:57 10° S
ATLAS 3B CENTAUR R/B 4.2 19:51:05 10° WSW 20:00:10 29° SSW 20:00:10 29° SSW
FALCON 9 R/B 4.2 20:18:34 10° W 20:26:28 33° WSW 20:26:28 33° WSW
